UMKA 1 (RS40S)

Last updated on Sun Jun 21 2026 00:03:20 GMT+0000 (Coordinated Universal Time)

1 57172U 23091G 26171.38369249 .00005161 00000+0 23636-3 0 9993 2 57172 97.5046 230.0688 0014343 107.7929 252.4872 15.20848788164497
UTC large
Height (km)
Speed (km/s)
/
Latitude / Longitude
Inclination (degrees)
Orbital Period (minutes)
Azimuth
Elevation
Range (km)
Doppler Factor

Next 0 passes for location: London (51.5072 / 0.1276)

No passes found over London.
UMKA 1 (RS40S)